Content
SEND FEEDBACK

Daily
Averages
Monthly
Summary
United States of America

ACHANG BAY, GUAM


Home > North America > United States > Guam
Elevation: 10 meters     Latitude: 13 16N     Longitude: 144 45E

WEATHER
 
SELECT A DAY
Number of Records: 342,764;   Date Range: 1/1/95 - 9/22/14
 
SHARE

PRINT THIS DATA

[ ← Previous Day ]
WEATHER ALMANAC - 2 SEPTEMBER, 2014
[ Next Day → ]
[ °F ]   °C
Weather ElementAverageHighLow
Temperature26.2 °C30 °C (10:08 am) (10:11 pm)
Dewpoint22.9 °C24.4 °C (1:58 pm) (7:00 pm)
Humidity82.8 %96 % (10:58 pm)70 % (9:23 am)
Barometer1009.5 hPa1011.9 hPa (9:48 pm)1007.1 hPa (2:58 am)
Wind Speed13 km/h24.1 km/h (7:26 pm)
Weather ElementAverage
Visibility14.5 km
Wind DirectionSSW (215.6 °)

Weather ElementTotal
Precipitation17.02 mm
Heating Degree Days12.2 (Base 18.3)
Averaged from 87 records on 2 September, 2014
WEATHER CONDITIONS BREAKOUT
WIND DIRECTION BREAKOUT
WEATHER BY HOUR - 2 SEPTEMBER, 2014
[ °F ]   °C
Local TimeTemperatureDewpointHumidityBarometerVisibilityWind DirectionWind SpeedGust SpeedPrecipitationEventsConditions
1:58 AM24.9 °C23.5 °C92 %1007.5 hPa16.1 kmWSW (240°)9.3 km/hClear
2:58 AM24.8 °C23.5 °C92 %1007.1 hPa16.1 kmWSW (250°)5.6 km/hClear
3:58 AM24.7 °C23.5 °C93 %1007.1 hPa16.1 kmWest (260°)7.4 km/hClear
4:58 AM25 °C23.6 °C92 %1007.5 hPa16.1 kmSW (230°)9.3 km/hClear
5:58 AM24.6 °C23.2 °C92 %1007.8 hPa16.1 kmSW (230°)7.4 km/hClear
6:58 AM25.6 °C23.6 °C89 %1008.1 hPa16.1 kmWSW (240°)7.4 km/hClear
7:58 AM28.1 °C24 °C78 %1008.8 hPa16.1 kmSSW (200°)11.1 km/hClear
8:58 AM28.9 °C23.3 °C72 %1008.5 hPa16.1 kmSSW (200°)11.1 km/hPartly Cloudy
9:23 AM29 °C23 °C70 %1009.8 hPa16.1 kmWSW (250°)9.3 km/hMostly Cloudy
9:58 AM28.6 °C23.4 °C73 %1008.5 hPa16.1 kmWSW (250°)13 km/hMostly Cloudy
10:08 AM30 °C24 °C70 %1009.5 hPa16.1 kmWSW (250°)14.8 km/hMostly Cloudy
10:13 AM29 °C24 °C74 %1009.8 hPa16.1 kmWSW (250°)11.1 km/hMostly Cloudy
10:18 AM29 °C24 °C74 %1009.8 hPa16.1 kmWSW (250°)13 km/hMostly Cloudy
10:28 AM30 °C24 °C70 %1009.8 hPa16.1 kmWSW (240°)11.1 km/hScattered Clouds
10:43 AM30 °C24 °C70 %1009.8 hPa16.1 kmWSW (250°)11.1 km/hMostly Cloudy
10:48 AM30 °C24 °C70 %1009.5 hPa16.1 kmWest (260°)14.8 km/hMostly Cloudy
10:53 AM30 °C24 °C70 %1009.5 hPa16.1 kmWSW (250°)13 km/hMostly Cloudy
10:58 AM29.7 °C23.7 °C70 %1008.5 hPa16.1 kmWest (280°)18.5 km/hMostly Cloudy
11:03 AM29 °C23 °C70 %1009.5 hPa16.1 kmWSW (250°)14.8 km/hScattered Clouds
11:43 AM29 °C23 °C70 %1009.5 hPa16.1 kmSSW (200°)11.1 km/hMostly Cloudy
11:58 AM28.6 °C24.2 °C77 %1008.1 hPa16.1 kmVariable5.6 km/hOvercast
12:23 PM30 °C24 °C70 %1008.8 hPa16.1 kmWest (280°)16.7 km/hOvercast
12:29 PM30 °C24 °C70 %1009.1 hPa16.1 kmWNW (290°)20.4 km/hThunderstormThunderstorm
12:34 PM29 °C24 °C74 %1009.1 hPa16.1 kmWest (270°)14.8 km/hThunderstormThunderstorm
12:39 PM29 °C24 °C74 %1008.8 hPa16.1 kmWest (280°)20.4 km/hThunderstormThunderstorm
12:47 PM29 °C23 °C70 %1008.8 hPa16.1 kmWest (280°)18.5 km/hThunderstormThunderstorm
12:48 PM29 °C23 °C70 %1008.8 hPa16.1 kmWest (280°)18.5 km/hThunderstormThunderstorm
12:49 PM29 °C23 °C70 %1008.8 hPa16.1 kmWest (280°)18.5 km/hThunderstormThunderstorm
12:56 PM28 °C24 °C79 %1008.8 hPa16.1 kmWest (280°)18.5 km/hScattered Clouds
12:58 PM28.5 °C23.5 °C74 %1007.8 hPa16.1 kmWest (280°)16.7 km/hThunderstormThunderstorm
1:00 PM28 °C24 °C79 %1008.8 hPa16.1 kmWNW (290°)16.7 km/hPartly Cloudy
1:04 PM28 °C24 °C79 %1008.8 hPa16.1 kmWest (280°)16.7 km/hClear
1:44 PM28 °C24 °C79 %1008.5 hPa16.1 kmWest (270°)16.7 km/hThunderstormThunderstorm
1:49 PM28 °C24 °C79 %1008.5 hPa16.1 kmWest (260°)14.8 km/hThunderstormThunderstorm
1:54 PM28 °C24 °C79 %1008.5 hPa16.1 kmWest (260°)18.5 km/hThunderstormThunderstorm
1:58 PM28.3 °C24.4 °C79 %1007.5 hPa16.1 kmWest (260°)18.5 km/hThunderstormThunderstorm
1:59 PM28 °C24 °C79 %1008.5 hPa16.1 kmWest (260°)16.7 km/hThunderstormThunderstorm
2:05 PM28 °C24 °C79 %1008.5 hPa16.1 kmWest (260°)14.8 km/hThunderstormPartly Cloudy
2:58 PM27.8 °C24.1 °C80 %1007.5 hPa16.1 kmWest (260°)20.4 km/hThunderstormPartly Cloudy
3:51 PM28 °C24 °C79 %1008.5 hPa16.1 kmWest (270°)14.8 km/hClear
3:58 PM27.6 °C24.3 °C82 %1007.5 hPa16.1 kmWest (260°)16.7 km/hClear
4:03 PM28 °C24 °C79 %1008.5 hPa16.1 kmWest (270°)16.7 km/hClear
4:06 PM28 °C24 °C79 %1008.1 hPa16.1 kmWest (270°)16.7 km/hClear
4:17 PM27 °C24 °C84 %1008.1 hPa16.1 kmWest (260°)16.7 km/hClear
4:18 PM27 °C24 °C84 %1008.1 hPa16.1 kmWest (260°)16.7 km/hClear
4:21 PM27 °C24 °C84 %1008.5 hPa16.1 kmWest (270°)16.7 km/hClear
4:25 PM27 °C24 °C84 %1008.5 hPa16.1 kmWest (260°)14.8 km/hClear
4:27 PM27 °C24 °C84 %1008.5 hPa16.1 kmWest (260°)11.1 km/hClear
4:28 PM27 °C24 °C84 %1008.5 hPa16.1 kmWSW (250°)11.1 km/hClear
4:29 PM27 °C24 °C84 %1008.5 hPa16.1 kmWest (260°)13 km/hClear
4:30 PM27 °C24 °C84 %1008.5 hPa16.1 kmWest (260°)13 km/hClear
4:31 PM27 °C24 °C84 %1008.5 hPa16.1 kmWSW (250°)14.8 km/hClear
4:32 PM27 °C24 °C84 %1008.5 hPa16.1 kmWSW (250°)13 km/hClear
4:33 PM27 °C24 °C84 %1008.5 hPa16.1 kmWSW (250°)13 km/hClear
4:58 PM27.1 °C24.2 °C84 %1007.5 hPa16.1 kmWest (260°)13 km/hClear
5:58 PM26.3 °C21.5 °C75 %1008.1 hPa16.1 kmNorth (10°)1.9 km/hOvercast
6:37 PM27 °C22 °C74 %1009.8 hPa16.1 kmNE (40°)9.3 km/hRainLight Rain
6:49 PM27 °C23 °C79 %1010.2 hPa16.1 kmNNE (30°)1.9 km/hOvercast
6:58 PM26.3 °C23.8 °C86 %1008.8 hPa11.3 kmNNE (30°)3.7 km/h0 mmMostly Cloudy
7:03 PM26 °C24 °C89 %1009.8 hPa12.9 kmNNE (30°)7.4 km/hMostly Cloudy
7:13 PM26 °C24 °C89 %1010.2 hPa16.1 kmNorth (350°)13 km/hMostly Cloudy
7:18 PM26 °C24 °C89 %1010.2 hPa16.1 kmNNW (330°)18.5 km/hOvercast
7:26 PM25 °C24 °C94 %1010.2 hPa16.1 kmNNW (330°)24.1 km/hLight Drizzle
7:31 PM25 °C22 °C83 %1010.5 hPa4.8 kmNNW (330°)16.7 km/hRainLight Rain
7:36 PM24 °C22 °C89 %1010.5 hPa3.2 kmNorth (10°)7.4 km/hRainLight Rain
7:41 PM24 °C22 °C89 %1010.8 hPa4 kmVariable11.1 km/hRainHeavy Rain
7:46 PM24 °C22 °C89 %1010.8 hPa1.9 kmNE (40°)9.3 km/hRainHeavy Rain
7:55 PM23 °C22 °C94 %1011.2 hPa4 kmENE (60°)11.1 km/hRain-ThunderstormHeavy Thunderstorms and Rain
7:58 PM23 °C22 °C94 %1010.2 hPa4 kmEast (90°)9.3 km/h9.91 mmRain-ThunderstormHeavy Thunderstorms and Rain
8:03 PM23 °C22 °C94 %1011.5 hPa6.4 kmESE (110°)5.6 km/hRain-ThunderstormLight Thunderstorms and Rain
8:18 PM24 °C22 °C89 %1011.2 hPa8 kmWest (260°)9.3 km/hRain-ThunderstormLight Thunderstorms and Rain
8:28 PM24 °C22 °C89 %1010.8 hPa14.5 kmWest (270°)5.6 km/hRain-ThunderstormLight Thunderstorms and Rain
8:39 PM24 °C23 °C94 %1011.2 hPa11.3 kmSSW (210°)9.3 km/hRain-ThunderstormLight Rain
8:58 PM23.7 °C22.9 °C95 %1010.5 hPa8 kmWSW (250°)13 km/h3.81 mmRainRain
9:03 PM24 °C23 °C94 %1011.5 hPa6.4 kmSW (230°)5.6 km/hRainRain
9:08 PM23 °C22 °C94 %1011.5 hPa8 kmSW (220°)1.9 km/hRainRain
9:13 PM24 °C23 °C94 %1011.5 hPa11.3 kmSE (140°)5.6 km/hRainLight Rain
9:48 PM24 °C23 °C94 %1011.9 hPa16.1 kmSE (130°)16.7 km/hRainLight Rain
9:53 PM24 °C23 °C94 %1011.9 hPa16.1 kmSE (140°)14.8 km/hRainLight Rain
9:58 PM24 °C23 °C94 %1011.2 hPa16.1 kmSE (140°)14.8 km/h2.03 mmRainLight Rain
10:03 PM24 °C23 °C94 %1011.9 hPa16.1 kmSE (140°)14.8 km/hRainLight Rain
10:11 PM-17.8 °C-17.8 °CSE (140°)16.7 km/h
10:12 PM24 °C23 °C94 %1011.9 hPa16.1 kmSE (140°)14.8 km/hRainLight Rain
10:22 PM24 °C23 °C94 %1011.9 hPa16.1 kmSE (140°)14.8 km/hRainLight Rain
10:37 PM24 °C23 °C94 %1011.2 hPa16.1 kmSSE (150°)13 km/hRainLight Rain
10:58 PM23.8 °C23.1 °C96 %1009.8 hPa16.1 kmSouth (170°)14.8 km/h0.76 mmRainLight Rain
11:58 PM24.1 °C23.2 °C95 %1009.5 hPa16.1 kmSouth (190°)13 km/h0.51 mmRainLight Rain
Hourly data recorded from PGUA, located 0 kilometers away from Achang Bay, Guam







STORIES FROM OUR PARTNERS